[[{"header":{"parameterUnit":"m.s-1","parameterCategory":1,"la1":30.2991,"la2":30.254,"lo1":-89.0895,"lo2":-89.0444,"dy":0.0017,"dx":0.0017,"nx":28,"ny":28,"refTime":"2025-12-23T09:00:00:Z","depth":0,"parameterNumber":2,"parameterNumberName":"U-component_of_WINDS"},"data":[0,0,0,0,0,0,0,0,0,0,0,0,0,0,0,0,0,0,0,0,0,0,0,0,0,0,0,0,0,0,0,0,0,0,0,0,0,0,0,0,0,0,0,0,0,0,0,0,0,0,0,0,0,0,0,0,0,0,0.7827,0.7828,0,0.7888,0.7889,0.7889,0.791,0.791,0.791,0.791,0.7972,0.7974,0.7975,0,0,0,0,0,0,0,0,0,0,0,0,0,0.773,0.7731,0.7827,0.7828,0.7829,0.7888,0.7889,0.7889,0.791,0.791,0.791,0.791,0.7971,0.7973,0.7976,0,0,0,0,0,0,0,0,0,0,0,0,0,0.7779,0.7732,0.7827,0.7846,0.7849,0.7888,0.7889,0.789,0.7911,0.791,0.791,0.791,0.797,0.7973,0.7976,0.8,0,0,0.7984,0.7986,0,0,0,0,0,0,0,0,0.7776,0.7783,0.7843,0.7845,0.7848,0.7891,0.7877,0.7927,0.7911,0.7887,0.791,0.7909,0.7945,0.795,0.7962,0.8003,0.8006,0.7985,0.7986,0.7988,0.7988,0,0,0,0,0,0,0,0.7773,0.778,0.7851,0.7844,0.7847,0.7852,0.7859,0.7886,0.7917,0.7889,0.7891,0.7898,0.7947,0.7959,0.7964,0.8007,0.7985,0.7987,0.7989,0.799,0.807,0.807,0,0,0,0,0,0,0.7766,0.7777,0.7849,0.7853,0.7811,0.7854,0.7861,0.7878,0.7917,0.7923,0.7898,0.7898,0.7955,0.7961,0.7966,0.7997,0.7988,0.799,0.7992,0.8069,0.807,0.807,0,0,0,0,0,0,0.7764,0.7773,0.7847,0.7816,0.7826,0.7856,0.7874,0.7879,0.7892,0.7924,0.7929,0.7905,0.7955,0.7962,0.7991,0.7999,0.7991,0.7994,0.8069,0.8069,0.807,0.8058,0,0,0,0,0,0,0.7761,0.7772,0.7781,0.7816,0.7827,0.7871,0.7875,0.788,0.7897,0.7898,0.7932,0.7938,0.7955,0.7987,0.7994,0.8003,0.7996,0.8068,0.8069,0.807,0.8058,0.8058,0.8058,0,0,0,0,0,0.7758,0.7776,0.7782,0.779,0.784,0.7872,0.7878,0.7898,0.7897,0.7907,0.7927,0.7937,0.7997,0.799,0.7998,0.8008,0.8068,0.8069,0.807,0.8058,0.8058,0.8058,0,0,0,0,0,0,0.7741,0.778,0.7788,0.7817,0.7841,0.7875,0.7888,0.7898,0.7922,0.7922,0.7946,0.7953,0.798,0.7997,0.7988,0.8033,0.8033,0.8035,0.8021,0.8022,0.8022,0.8017,0.7998,0,0,0,0,0,0.7741,0.7764,0.7797,0.782,0.7831,0.7857,0.7872,0.7885,0.7911,0.7921,0.7943,0.7968,0.7992,0.8008,0.8032,0.806,0.8068,0.8071,0.8071,0.8071,0.8073,0.8089,0.809,0.8073,0.8073,0.8073,0,0,0.7741,0.7765,0.7778,0.7817,0.7837,0.786,0.7866,0.789,0.7907,0.7925,0.7953,0.7971,0.7999,0.8028,0.8042,0.8042,0.808,0.8072,0.8072,0.8074,0.809,0.8092,0.8093,0.8074,0.8074,0.8074,0,0,0.7752,0.7773,0.7794,0.7814,0.7844,0.7861,0.7866,0.7899,0.7911,0.794,0.7954,0.7974,0.8016,0.8036,0.8052,0.807,0.8079,0.8077,0.8079,0.8093,0.8095,0.8096,0.8102,0.8104,0.8079,0.8079,0.8079,0,0.7748,0.7783,0.7804,0.7827,0.7843,0.786,0.7882,0.79,0.7936,0.7947,0.7948,0.8,0.8021,0.8054,0.8058,0.807,0.8077,0.8073,0.8093,0.8094,0.8096,0.8102,0.8104,0.8078,0.8078,0.8078,0.8079,0,0.7776,0.78,0.7814,0.7848,0.7867,0.7889,0.7912,0.7928,0.794,0.7957,0.7986,0.8011,0.8041,0.805,0.8061,0.8084,0.8084,0.8088,0.8089,0.8097,0.8103,0.8105,0.8078,0.8078,0.8078,0.8078,0,0,0.7779,0.7825,0.7829,0.7845,0.7879,0.7898,0.7921,0.7949,0.7962,0.7987,0.8006,0.8041,0.8045,0.8063,0.8076,0.8089,0.8102,0.8092,0.8093,0.8093,0.8128,0.8125,0.8127,0.8108,0.8109,0.8109,0.8126,0,0.7795,0.7836,0.7855,0.7888,0.791,0.7927,0.7946,0.7969,0.7986,0.8007,0.8025,0.8049,0.8053,0.8064,0.8077,0.8097,0.8109,0.8096,0.8126,0.8127,0.8118,0.813,0.8127,0.8142,0.8128,0.8129,0.8129,0,0.7818,0.7843,0.7878,0.7909,0.7919,0.7936,0.7964,0.7984,0.801,0.8021,0.8041,0.8054,0.8078,0.8077,0.811,0.8101,0.8114,0.8126,0.8127,0.813,0.8128,0.8134,0.8147,0.8149,0.8133,0.8133,0.8133,0,0.7817,0.7858,0.7884,0.7897,0.7934,0.7946,0.7962,0.7988,0.8004,0.8028,0.8038,0.8065,0.8079,0.81,0.8119,0.8117,0.8151,0.8151,0.8161,0.816,0.8167,0.8166,0.8182,0.8176,0.8176,0.8176,0.8176,0,0.7832,0.7853,0.7884,0.79,0.7924,0.7945,0.7968,0.7985,0.8008,0.8027,0.8043,0.8061,0.8086,0.8107,0.8123,0.8148,0.8154,0.8164,0.8168,0.8162,0.8161,0.8171,0.8171,0.8176,0.8176,0.8176,0.8176,0,0.7834,0.7856,0.7885,0.7918,0.7926,0.7942,0.797,0.7986,0.8003,0.8028,0.8035,0.8062,0.8087,0.8109,0.8143,0.8153,0.8179,0.8184,0.817,0.8172,0.818,0.8179,0.8203,0.8207,0.8198,0.8198,0.8198,0,0.7842,0.7858,0.7893,0.7907,0.7922,0.7945,0.7961,0.7983,0.7999,0.803,0.8042,0.8069,0.8091,0.8131,0.8154,0.8179,0.8185,0.8191,0.8189,0.8183,0.8185,0.8183,0.8185,0.8191,0.8191,0.8191,0.8191,0,0.7854,0.7864,0.7887,0.7914,0.7932,0.7954,0.7977,0.7987,0.8013,0.8031,0.8057,0.8074,0.8108,0.8134,0.8163,0.8179,0.8189,0.8192,0.8195,0.819,0.8181,0.8186,0.817,0.8191,0.8191,0.8191,0.8191,0.8191,0.7859,0.7874,0.7901,0.7926,0.7945,0.7965,0.7982,0.8001,0.8023,0.8053,0.8064,0.8091,0.8116,0.8155,0.8171,0.8192,0.8194,0.8199,0.82,0.8201,0.82,0.8178,0.8197,0.8197,0.8197,0.8197,0.8197,0,0.7872,0.789,0.7913,0.7943,0.7963,0.7971,0.7996,0.8012,0.8035,0.8058,0.8079,0.8109,0.8134,0.8159,0.8185,0.8197,0.8203,0.8203,0.8203,0.8206,0.8197,0.8191,0.8198,0.8198,0.8198,0.8198,0.8198,0.8198,0.7881,0.7907,0.792,0.7955,0.7973,0.7999,0.8013,0.8031,0.805,0.8082,0.8103,0.8119,0.8142,0.817,0.8194,0.82,0.8209,0.8209,0.8216,0.8207,0.8207,0.8206,0.8201,0.821,0.821,0.8224,0.8224,0.8224]},{"header":{"parameterUnit":"m.s-1","parameterCategory":1,"la1":30.2991,"la2":30.254,"lo1":-89.0895,"lo2":-89.0444,"dy":0.0017,"dx":0.0017,"nx":28,"ny":28,"refTime":"2025-12-23T09:00:00:Z","depth":0,"parameterNumber":3,"parameterNumberName":"V-component_of_WINDS"},"data":[0,0,0,0,0,0,0,0,0,0,0,0,0,0,0,0,0,0,0,0,0,0,0,0,0,0,0,0,0,0,0,0,0,0,0,0,0,0,0,0,0,0,0,0,0,0,0,0,0,0,0,0,0,0,0,0,0,0,0.743,0.7429,0,0.7363,0.7362,0.7362,0.7355,0.7355,0.7356,0.7357,0.7282,0.728,0.7277,0,0,0,0,0,0,0,0,0,0,0,0,0,0.7546,0.7543,0.743,0.7429,0.7428,0.7363,0.7362,0.7361,0.7355,0.7355,0.7356,0.7357,0.7283,0.728,0.7277,0,0,0,0,0,0,0,0,0,0,0,0,0,0.7489,0.7543,0.743,0.7417,0.7415,0.7364,0.7362,0.7361,0.7354,0.7355,0.7357,0.7357,0.7284,0.728,0.7277,0.7231,0,0,0.7264,0.7263,0,0,0,0,0,0,0,0,0.7492,0.7484,0.742,0.7418,0.7416,0.7369,0.7376,0.7317,0.7354,0.7377,0.7357,0.7358,0.731,0.7304,0.7289,0.7228,0.7224,0.7264,0.7262,0.726,0.7259,0,0,0,0,0,0,0,0.7496,0.7487,0.7403,0.7419,0.7417,0.7413,0.7406,0.7365,0.7338,0.7375,0.7375,0.7367,0.7309,0.7293,0.7287,0.7223,0.7264,0.7261,0.7258,0.7257,0.712,0.7118,0,0,0,0,0,0,0.7503,0.7491,0.7406,0.7401,0.7457,0.741,0.7402,0.7383,0.7339,0.7333,0.7366,0.7367,0.7299,0.7292,0.7284,0.7227,0.726,0.7256,0.7254,0.7121,0.7119,0.7118,0,0,0,0,0,0,0.7506,0.7496,0.7408,0.7446,0.7434,0.7407,0.7385,0.7381,0.7365,0.7332,0.7327,0.7355,0.7299,0.729,0.7244,0.7224,0.7255,0.7251,0.7122,0.712,0.7119,0.7113,0,0,0,0,0,0,0.7509,0.7496,0.748,0.7446,0.7433,0.7371,0.7384,0.7379,0.7358,0.7359,0.732,0.7315,0.7299,0.725,0.7241,0.7219,0.7248,0.7124,0.7122,0.7119,0.7115,0.7111,0.7108,0,0,0,0,0,0.7513,0.748,0.748,0.7469,0.7412,0.737,0.7362,0.7348,0.7357,0.7339,0.7318,0.7316,0.7229,0.7246,0.7235,0.7212,0.7125,0.7122,0.7119,0.7116,0.7112,0.7108,0,0,0,0,0,0,0.7511,0.7476,0.7474,0.743,0.7403,0.7369,0.7347,0.7343,0.7312,0.7314,0.7295,0.7286,0.7241,0.7222,0.7242,0.7165,0.7177,0.7172,0.7179,0.7174,0.7171,0.7176,0.7245,0,0,0,0,0,0.7506,0.7477,0.7447,0.741,0.7397,0.7374,0.7356,0.7347,0.7317,0.7306,0.7281,0.7251,0.7217,0.7195,0.7162,0.7112,0.7103,0.7091,0.7088,0.7085,0.708,0.7051,0.7045,0.7109,0.7109,0.7109,0,0,0.7495,0.7471,0.7454,0.7409,0.7388,0.7356,0.7365,0.7331,0.7307,0.73,0.7256,0.7237,0.7202,0.7154,0.7132,0.7137,0.7061,0.7082,0.708,0.7076,0.7047,0.7041,0.7036,0.7107,0.7107,0.7107,0,0,0.7457,0.7437,0.7404,0.7383,0.7351,0.7336,0.7328,0.7294,0.7282,0.7238,0.7232,0.7201,0.7143,0.7118,0.7098,0.7051,0.7046,0.7041,0.7022,0.6994,0.6989,0.6984,0.6965,0.6959,0.7036,0.7036,0.7036,0,0.7446,0.74,0.7387,0.7354,0.7333,0.7328,0.7293,0.7272,0.723,0.7215,0.7222,0.7149,0.7125,0.7071,0.7059,0.7044,0.7032,0.7044,0.6991,0.6986,0.6982,0.6963,0.6957,0.7035,0.7036,0.7036,0.7036,0,0.7387,0.7355,0.7332,0.7293,0.727,0.7236,0.7217,0.7195,0.7188,0.7171,0.7125,0.7097,0.7057,0.7044,0.7036,0.6988,0.6992,0.6995,0.7007,0.6975,0.6958,0.6951,0.7035,0.7035,0.7035,0.7035,0,0,0.7345,0.7301,0.7292,0.7274,0.7238,0.7212,0.7177,0.7141,0.7121,0.7092,0.7061,0.7012,0.7015,0.6992,0.6981,0.6956,0.6919,0.6962,0.6961,0.6954,0.6861,0.6858,0.685,0.6916,0.6915,0.6914,0.6864,0,0.7302,0.7242,0.7229,0.7176,0.7145,0.7139,0.7109,0.7082,0.7066,0.7035,0.7017,0.6982,0.6989,0.6975,0.6951,0.6929,0.69,0.6932,0.6884,0.6883,0.6892,0.6842,0.6838,0.6792,0.6857,0.6856,0.6855,0,0.7244,0.7215,0.716,0.7127,0.7114,0.7087,0.7051,0.7023,0.6992,0.6982,0.6957,0.6948,0.6909,0.6924,0.6869,0.6892,0.6871,0.6857,0.6855,0.6849,0.6866,0.6832,0.6777,0.677,0.6845,0.6846,0.6846,0,0.7217,0.7165,0.7124,0.7109,0.7071,0.7051,0.7034,0.7005,0.6983,0.6951,0.6937,0.6901,0.688,0.6851,0.6833,0.6846,0.6778,0.6792,0.6766,0.6767,0.6751,0.6752,0.669,0.6741,0.6741,0.6741,0.6741,0,0.7169,0.7135,0.7112,0.7087,0.7047,0.7033,0.6993,0.6976,0.6949,0.6919,0.6911,0.6883,0.6861,0.6828,0.6813,0.6769,0.676,0.6749,0.6745,0.6748,0.675,0.6733,0.6735,0.6739,0.674,0.674,0.674,0,0.7132,0.7116,0.7071,0.7039,0.703,0.7002,0.6973,0.6947,0.6932,0.6893,0.6883,0.6857,0.6818,0.6798,0.6749,0.6739,0.6688,0.6687,0.6699,0.6697,0.6672,0.6674,0.6596,0.6584,0.6644,0.6644,0.6644,0,0.7102,0.7076,0.7041,0.7022,0.7004,0.6972,0.6951,0.6935,0.6912,0.6875,0.6853,0.6815,0.6783,0.6721,0.6696,0.6658,0.6655,0.663,0.6649,0.6653,0.6652,0.6653,0.6649,0.6626,0.6626,0.6625,0.6625,0,0.705,0.7043,0.7013,0.698,0.6955,0.6928,0.69,0.6884,0.6863,0.6838,0.6799,0.6775,0.6726,0.6687,0.6647,0.6627,0.6621,0.662,0.6611,0.6614,0.6621,0.6615,0.6688,0.6621,0.6621,0.6622,0.6622,0.6622,0.7014,0.699,0.6962,0.6928,0.6907,0.6882,0.6856,0.6837,0.6805,0.6765,0.6757,0.6716,0.6684,0.6631,0.661,0.6575,0.658,0.6568,0.6565,0.6562,0.656,0.6629,0.6568,0.6568,0.6568,0.6568,0.6569,0,0.696,0.6942,0.6911,0.6874,0.6848,0.6848,0.6818,0.6794,0.6759,0.6731,0.67,0.6655,0.6617,0.659,0.6551,0.6528,0.6525,0.6518,0.6519,0.6514,0.6559,0.657,0.6522,0.6522,0.6522,0.6522,0.6522,0.6522,0.6928,0.6887,0.6877,0.6824,0.6806,0.6767,0.6749,0.6725,0.6703,0.6653,0.6623,0.6606,0.6577,0.6536,0.65,0.6493,0.6478,0.6471,0.6463,0.6506,0.6511,0.6515,0.6525,0.6469,0.6469,0.6421,0.642,0.642]}]]